This demonstration page uses our WeatherBlox Daily Observations layout. Learn more.

Left ArrowRight Arrow

39.01783, -85.05884

Hourly Observations for June 7, 2018

Temp ( °F °C ) Dew Point ( °F °C ) Humidity (%) Winds ( mph kmh ) Pressure ( in mb ) Visibility ( mi km ) Precip ( " mm )
12:52 am 00:52 Partly Cloudy 64 17.8 50 10 60 60 SSE 3 6 29.96 1015 10 16 N/A
1:52 am 01:52 Mostly Cloudy 61 16.1 50 10 67 67 ESE 5 7 29.97 1015 10 16 N/A
2:52 am 02:52 Cloudy 61 16.1 51 10.6 70 70 SE 6 9 29.97 1015 10 16 N/A
3:52 am 03:52 Mostly Cloudy 61 16.1 51 10.6 70 70 ESE 9 15 29.98 1015 10 16 N/A
4:52 am 04:52 Cloudy 60 15.6 52 11.1 75 75 SE 8 13 29.98 1015 10 16 N/A
5:52 am 05:52 Mostly Cloudy 58 14.4 52 11.1 81 81 SSE 8 13 30.00 1016 10 16 N/A
6:52 am 06:52 Partly Cloudy 58 14.4 52 11.1 81 81 SE 8 13 30.02 1017 10 16 N/A
7:52 am 07:52 Mostly Sunny 62 16.7 53 11.7 73 73 SSE 8 13 30.02 1017 10 16 N/A
8:52 am 08:52 Sunny 65 18.3 54 12.2 68 68 S 8 13 30.05 1018 10 16 N/A
9:52 am 09:52 Mostly Cloudy 69 20.6 55 12.8 61 61 S 9 15 30.06 1018 10 16 N/A
10:52 am 10:52 Mostly Cloudy 73 22.8 56 13.3 55 55 S 7 11 30.07 1018 10 16 N/A
11:52 am 11:52 Mostly Cloudy 76 24.4 57 13.9 52 52 SSW 7 11 30.06 1018 10 16 N/A
12:52 pm 12:52 Mostly Cloudy 79 26.1 59 15 50 50 S 8 13 30.06 1018 10 16 N/A
1:52 pm 13:52 Mostly Cloudy 81 27.2 60 15.6 49 49 S 12 19 30.03 1017 10 16 N/A
2:52 pm 14:52 Mostly Sunny 83 28.3 62 16.7 49 49 SSW 9 15 30.01 1016 10 16 N/A
3:52 pm 15:52 Mostly Sunny 84 28.9 64 17.8 51 51 S 8 13 30.02 1017 10 16 N/A
4:52 pm 16:52 Partly Cloudy 85 29.4 64 17.8 50 50 SW 8 13 30.02 1017 10 16 N/A
5:52 pm 17:52 Partly Cloudy 84 28.9 63 17.2 49 49 WSW 8 13 30.02 1017 10 16 N/A
6:52 pm 18:52 Mostly Sunny 83 28.3 64 17.8 53 53 SSW 7 11 30.02 1017 10 16 N/A
7:52 pm 19:52 Partly Cloudy 81 27.2 64 17.8 57 57 S 7 11 30.03 1017 10 16 N/A
8:52 pm 20:52 Mostly Cloudy 77 25 65 18.3 66 66 S 6 9 30.03 1017 10 16 N/A
9:52 pm 21:52 Mostly Cloudy 76 24.4 64 17.8 67 67 SSW 6 9 30.04 1017 10 16 N/A
10:52 pm 22:52 Cloudy 75 23.9 64 17.8 69 69 S 6 9 30.07 1018 10 16 N/A
11:38 pm 23:38 Cloudy 77 25 64 17.8 64 64 N 9 15 30.09 1019 10 16 N/A
11:52 pm 23:52 Cloudy 78 25.6 64 17.8 62 62 N 10 17 30.10 1019 10 16 N/A

Powered by AerisWeather